G4RHR Weather Reports


Display with metric or nautical units.
time (UTC)temp
F
wind
direction
speed
MPH
gust
MPH
rain 1hr
in
rain 24hr
in
rain mn
in
humidity
%
barometer
mb
20260507223905 50 360 0.0 1.0 0.00 0.00 0.00 86 1016.2
20260507223216 50 360 0.0 2.0 0.00 0.00 0.00 86 1016.2
20260507222313 50 360 0.0 1.0 0.00 0.00 0.00 85 1016.2
20260507221200 51 360 0.0 1.0 0.00 0.00 0.00 84 1016.2
20260507220301 51 360 0.0 2.0 0.00 0.00 0.00 85 1016.1
20260507215400 51 360 0.0 2.0 0.00 0.00 0.00 84 1016.2
20260507214500 51 360 0.0 2.0 0.00 0.00 0.00 84 1016.2
20260507213600 51 360 0.0 1.0 0.00 0.00 0.00 84 1016.1
20260507212700 51 360 0.0 1.0 0.00 0.00 0.00 84 1016.2
20260507211800 51 360 0.0 3.0 0.00 0.00 0.00 84 1016.2
20260507210900 52 360 1.0 3.0 0.00 0.00 0.00 84 1016.0
20260507210001 52 360 1.0 3.0 0.00 0.00 0.00 83 1016.1
20260507205101 52 7 1.0 4.0 0.00 0.00 0.00 83 1015.9
20260507204200 52 18 0.0 3.0 0.00 0.00 0.00 83 1015.9
20260507203301 52 9 0.0 3.0 0.00 0.00 0.00 83 1015.9
20260507202401 52 11 0.0 3.0 0.00 0.00 0.00 82 1015.9
20260507201711 52 7 0.0 3.0 0.00 0.00 0.00 82 1015.8
20260507200814 52 49 0.0 3.0 0.00 0.00 0.00 81 1015.7
20260507195701 52 11 0.0 2.0 0.00 0.00 0.00 81 1015.6
20260507194800 52 15 1.0 3.0 0.00 0.00 0.00 80 1015.5
20260507193900 52 12 1.0 6.0 0.00 0.00 0.00 80 1015.5
20260507193003 52 23 2.0 5.0 0.00 0.00 0.00 80 1015.4
20260507192100 53 41 3.0 6.0 0.00 0.00 0.00 79 1015.5
20260507191201 53 60 2.0 8.0 0.00 0.00 0.00 79 1015.4
20260507190300 53 19 3.0 8.0 0.00 0.00 0.00 79 1015.4
20260507185401 53 78 4.0 9.0 0.00 0.00 0.00 78 1015.5
20260507184501 53 2 4.0 9.0 0.00 0.00 0.00 77 1015.5
20260507183601 53 25 3.0 8.0 0.00 0.00 0.00 77 1015.5
20260507182701 53 18 5.0 10.0 0.00 0.00 0.00 76 1015.5
20260507181801 54 28 4.0 11.0 0.00 0.00 0.00 76 1015.4
20260507180901 54 11 5.0 10.0 0.00 0.00 0.00 76 1015.3
20260507180001 54 59 5.0 10.0 0.00 0.00 0.00 75 1015.4
20260507175100 54 91 5.0 10.0 0.00 0.00 0.00 74 1015.3
20260507174201 55 99 3.0 8.0 0.00 0.00 0.00 73 1015.3
20260507173301 55 95 4.0 9.0 0.00 0.00 0.00 73 1015.3
20260507172400 55 94 4.0 11.0 0.00 0.00 0.00 72 1015.3
20260507171500 56 94 4.0 11.0 0.00 0.00 0.00 72 1015.3
20260507170600 56 96 4.0 10.0 0.00 0.00 0.00 71 1015.3
20260507165701 56 102 3.0 8.0 0.00 0.00 0.00 71 1015.4
20260507164800 56 101 4.0 11.0 0.00 0.00 0.00 70 1015.4
20260507163901 56 97 4.0 11.0 0.00 0.00 0.00 69 1015.5
20260507163000 56 92 4.0 10.0 0.00 0.00 0.00 69 1015.6
20260507162100 57 97 5.0 11.0 0.00 0.00 0.00 67 1015.5
20260507161415 57 99 5.0 12.0 0.00 0.00 0.00 66 1015.6
20260507160303 59 98 4.0 9.0 0.00 0.00 0.00 64 1015.5
20260507155401 60 100 4.0 10.0 0.00 0.00 0.00 63 1015.6
20260507154500 60 97 6.0 13.0 0.00 0.00 0.00 64 1015.5
20260507153601 59 89 5.0 12.0 0.00 0.00 0.00 63 1015.4
20260507152701 59 107 2.0 8.0 0.00 0.00 0.00 65 1015.4
20260507151800 58 95 5.0 12.0 0.00 0.00 0.00 66 1015.4
20260507150900 58 96 6.0 15.0 0.00 0.00 0.00 64 1015.4
20260507150003 59 94 5.0 12.0 0.00 0.00 0.00 63 1015.4
20260507145103 60 97 5.0 13.0 0.00 0.00 0.00 62 1015.4
20260507144201 60 93 6.0 13.0 0.00 0.00 0.00 61 1015.4
20260507143300 61 96 5.0 13.0 0.00 0.00 0.00 60 1015.5
20260507142403 61 94 5.0 14.0 0.00 0.00 0.00 59 1015.5
20260507141500 61 97 6.0 13.0 0.00 0.00 0.00 59 1015.5
20260507140601 62 99 6.0 13.0 0.00 0.00 0.00 58 1015.5
20260507135700 62 104 4.0 11.0 0.00 0.00 0.00 58 1015.6
20260507135012 62 105 4.0 11.0 0.00 0.00 0.00 58 1015.6
20260507133901 62 100 4.0 12.0 0.00 0.00 0.00 57 1015.6
20260507133000 62 96 5.0 12.0 0.00 0.00 0.00 57 1015.7
20260507132100 62 99 6.0 13.0 0.00 0.00 0.00 56 1015.6
20260507131201 62 96 5.0 13.0 0.00 0.00 0.00 57 1015.6
20260507130514 62 95 5.0 13.0 0.00 0.00 0.00 57 1015.7
20260507125403 62 92 6.0 13.0 0.00 0.00 0.00 57 1015.7
20260507124501 62 101 5.0 12.0 0.00 0.00 0.00 56 1015.7
20260507123600 62 108 4.0 11.0 0.00 0.00 0.00 57 1015.7
20260507122701 62 108 4.0 10.0 0.00 0.00 0.00 59 1015.7
20260507121801 62 138 4.0 9.0 0.00 0.00 0.00 59 1015.7
20260507120901 62 150 4.0 10.0 0.00 0.00 0.00 59 1015.7
20260507120001 62 121 4.0 9.0 0.00 0.00 0.00 59 1015.7
20260507115100 62 99 4.0 13.0 0.00 0.00 0.00 57 1015.7
20260507114200 62 124 3.0 10.0 0.00 0.00 0.00 58 1015.7
20260507113512 62 129 3.0 9.0 0.00 0.01 0.00 60 1015.7
20260507112400 62 99 5.0 11.0 0.00 0.01 0.00 60 1015.7
20260507111506 62 96 4.0 11.0 0.00 0.01 0.00 59 1015.9
20260507110601 62 110 4.0 11.0 0.00 0.02 0.00 59 1015.9
20260507105701 62 114 4.0 10.0 0.00 0.02 0.00 61 1016.0
20260507104800 62 112 3.0 10.0 0.00 0.02 0.00 61 1016.0
20260507103901 61 146 3.0 10.0 0.00 0.02 0.00 63 1016.0
20260507103001 61 110 4.0 10.0 0.00 0.02 0.00 63 1016.0
20260507102101 60 103 3.0 9.0 0.00 0.02 0.00 66 1015.9
20260507101200 58 87 5.0 10.0 0.00 0.02 0.00 67 1015.9
20260507100301 57 86 4.0 8.0 0.00 0.02 0.00 68 1015.9
20260507095400 56 90 3.0 8.0 0.00 0.02 0.00 69 1015.9
20260507094500 56 89 2.0 7.0 0.00 0.02 0.00 70 1015.8
20260507093601 55 33 1.0 4.0 0.00 0.02 0.00 71 1015.8
20260507092910 55 32 2.0 5.0 0.00 0.02 0.00 69 1015.8
20260507091801 55 68 2.0 4.0 0.00 0.02 0.00 69 1015.8
20260507091115 56 79 1.0 4.0 0.00 0.02 0.00 70 1015.8
20260507090212 55 79 3.0 7.0 0.00 0.02 0.00 70 1015.7
20260507085101 55 81 2.0 6.0 0.00 0.02 0.00 69 1015.6
20260507084412 54 63 3.0 6.0 0.00 0.02 0.00 71 1015.6
20260507083300 54 33 2.0 5.0 0.00 0.02 0.00 69 1015.6
20260507082401 55 60 1.0 4.0 0.00 0.02 0.00 70 1015.6
20260507081501 55 76 2.0 6.0 0.00 0.02 0.00 69 1015.5
20260507080601 54 96 2.0 4.0 0.00 0.02 0.00 71 1015.5
20260507075701 55 84 3.0 7.0 0.00 0.02 0.00 71 1015.4
20260507074801 54 52 2.0 5.0 0.00 0.02 0.00 71 1015.4
20260507073901 54 55 3.0 6.0 0.00 0.02 0.00 72 1015.3
20260507073000 54 60 3.0 8.0 0.00 0.02 0.00 73 1015.2
20260507072100 53 64 4.0 7.0 0.00 0.02 0.00 75 1015.2
20260507071201 52 60 3.0 7.0 0.00 0.02 0.00 77 1015.2
20260507070300 52 38 3.0 5.0 0.00 0.02 0.00 80 1015.2
20260507065401 51 37 2.0 5.0 0.00 0.02 0.00 82 1015.2
20260507064503 50 39 2.0 5.0 0.00 0.02 0.00 85 1015.2
20260507063603 49 24 2.0 5.0 0.00 0.02 0.00 89 1015.1
20260507062700 48 32 3.0 5.0 0.00 0.02 0.00 91 1015.1
20260507061800 46 29 2.0 5.0 0.00 0.02 0.00 93 1015.1
20260507061111 45 9 1.0 3.0 0.00 0.02 0.00 93 1015.1
20260507060001 44 10 1.0 3.0 0.00 0.02 0.00 93 1015.1
20260507055100 43 2 2.0 3.0 0.00 0.02 0.00 93 1015.0
20260507054201 43 360 1.0 3.0 0.00 0.02 0.00 93 1015.0
20260507053301 42 360 1.0 2.0 0.00 0.02 0.00 93 1015.0
20260507052403 42 360 1.0 3.0 0.00 0.02 0.00 93 1014.9
20260507051500 41 360 1.0 3.0 0.00 0.02 0.00 93 1014.9
20260507050813 41 360 0.0 2.0 0.00 0.02 0.00 93 1014.8
20260507045705 41 360 0.0 2.0 0.00 0.02 0.00 92 1014.8
20260507044800 41 360 0.0 3.0 0.00 0.02 0.00 92 1014.6
20260507043900 41 360 0.0 1.0 0.00 0.02 0.00 91 1014.5
20260507043001 41 360 0.0 1.0 0.00 0.02 0.00 91 1014.5
20260507042100 42 360 0.0 2.0 0.00 0.02 0.00 91 1014.4
20260507041203 42 360 1.0 2.0 0.00 0.02 0.00 92 1014.4
20260507040300 42 360 1.0 3.0 0.00 0.02 0.00 92 1014.4
20260507035612 42 360 1.0 3.0 0.00 0.02 0.00 92 1014.4
20260507034501 42 360 1.0 4.0 0.00 0.02 0.00 92 1014.2
20260507033811 42 360 1.0 3.0 0.00 0.02 0.00 92 1014.2
20260507032701 42 360 2.0 5.0 0.00 0.02 0.00 92 1014.2
20260507031801 42 360 2.0 4.0 0.00 0.02 0.00 91 1014.2
20260507031113 42 360 2.0 4.0 0.00 0.02 0.00 91 1014.2
20260507030000 42 360 2.0 3.0 0.00 0.02 0.00 91 1014.2
20260507025101 42 360 2.0 5.0 0.00 0.02 0.00 91 1014.1
20260507024200 42 360 1.0 5.0 0.00 0.02 0.00 91 1014.1
20260507023300 43 360 2.0 3.0 0.00 0.02 0.00 91 1014.1
20260507022401 42 360 2.0 4.0 0.00 0.02 0.00 91 1014.1
20260507021500 42 360 1.0 4.0 0.00 0.02 0.00 91 1014.1
20260507020815 42 360 1.0 3.0 0.00 0.02 0.00 90 1014.0
20260507015703 43 360 1.0 3.0 0.00 0.02 0.00 91 1013.9
20260507014800 43 360 1.0 3.0 0.00 0.02 0.00 90 1013.9
20260507013900 43 360 1.0 3.0 0.00 0.02 0.00 90 1013.8
20260507013001 43 360 2.0 3.0 0.00 0.02 0.00 90 1013.8
20260507012312 43 360 1.0 3.0 0.00 0.02 0.00 90 1013.8
20260507010300 43 360 1.0 3.0 0.00 0.02 0.00 89 1013.8
20260507005614 44 360 2.0 4.0 0.00 0.02 0.00 89 1013.8
20260507004711 44 360 2.0 4.0 0.00 0.02 0.00 89 1013.8
20260507003601 44 360 2.0 3.0 0.00 0.02 0.00 89 1013.8
20260507002701 44 360 1.0 3.0 0.00 0.02 0.00 89 1013.8
20260507002013 44 360 1.0 3.0 0.00 0.02 0.00 88 1013.9
20260507001115 44 360 2.0 3.0 0.00 0.02 0.00 89 1013.8
20260507000213 45 360 2.0 4.0 0.00 0.02 0.00 88 1013.9
20260506235100 45 360 2.0 4.0 0.00 0.02 0.02 88 1013.9
20260506234200 45 14 1.0 2.0 0.00 0.02 0.02 88 1013.9
20260506233300 45 15 1.0 3.0 0.00 0.02 0.02 88 1013.9
20260506232400 46 15 1.0 3.0 0.00 0.02 0.02 88 1013.9
20260506231501 46 15 1.0 3.0 0.00 0.02 0.02 87 1013.8
20260506230601 46 19 2.0 3.0 0.00 0.02 0.02 87 1013.9
20260506225700 46 40 1.0 3.0 0.00 0.02 0.02 87 1013.8
20260506224801 46 42 1.0 3.0 0.00 0.02 0.02 87 1013.8